Weather History for KTIF - April, 2013

Change the Weather History Date:

Sunday, April 28, 2013

  Actual Average (KLBF) Record (KLBF)
Temperature  
Mean Temperature 62 °F 52 °F  
Max Temperature 81 °F 66 °F 95 °F (1910)
Min Temperature 43 °F 38 °F 21 °F (1965)
Degree Days  
Heating Degree Days 3 13  
Month to date heating degree days 499  
Since 1 July heating degree days 6364  
Cooling Degree Days 0 0  
Month to date cooling degree days 0  
Year to date cooling degree days 0  
Growing Degree Days 12 (Base 50)    
Moisture  
Dew Point 32 °F    
Average Humidity 36    
Maximum Humidity 77    
Minimum Humidity 12    
Precipitation  
Precipitation 0.00 in 0.09 in 2.74 in (1875)
Month to date precipitation 2.09  
Year to date precipitation 3.98  
Snow  
Snow 0.00 in 0.00 in 5.10 in (1994)
Month to date snowfall 3.1  
Since 1 July snowfall 28.4  
Snow Depth -    
Sea Level Pressure  
Sea Level Pressure 29.83 in    
Wind  
Wind Speed 11 mph (NNW)    
Max Wind Speed 21 mph    
Max Gust Speed 30 mph    
Visibility 10 miles    
Events      
T = Trace of Precipitation, MM = Missing Value Source: NWS Daily Summary

Daily Weather History Graph

Daily Weather History Graph

Search for Another Location

Airport or City:

Trip Planner

Search our weather history database for the weather conditions in past years. The results will help you decide how hot, cold, wet, or windy it might be!

Date:

Astronomy

Apr. 28, 2013 Rise Set
Actual Time 6:42 AM CDT 8:38 PM CDT
Civil Twilight 6:11 AM CDT 9:08 PM CDT
Nautical Twilight 5:35 AM CDT 9:45 PM CDT
Astronomical Twilight 4:55 AM CDT 10:25 PM CDT
Moon No Moon Rise 8:58 AM CDT (4/28)
Length of Visible Light 14h 56m
Length of Day
13h 56m
Waning Gibbous, 88% of the Moon is Illuminated
Apr 28
Waning Gibbous
May 2
Last Quarter
May 9
New
May 17
First Quarter
May 24
Full

Hourly Weather History & Observations

Time (CDT) Temp. Dew Point Humidity Pressure Visibility Wind Dir Wind Speed Gust Speed Precip Events Conditions
12:15 AM 57.2 °F 31.8 °F 38% 29.90 in 10.0 mi SSW 11.5 mph - N/A   Clear
12:35 AM 57.7 °F 36.5 °F 45% 29.89 in 10.0 mi SSW 12.7 mph - N/A   Clear
12:55 AM 59.0 °F 38.3 °F 46% 29.89 in 10.0 mi SSW 12.7 mph - N/A   Clear
1:15 AM 58.5 °F 38.3 °F 47% 29.89 in 10.0 mi SSW 11.5 mph - N/A   Clear
1:35 AM 58.3 °F 38.7 °F 48% 29.88 in 10.0 mi SSW 13.8 mph - N/A   Clear
1:55 AM 57.2 °F 38.8 °F 50% 29.87 in 10.0 mi SSW 12.7 mph - N/A   Clear
2:15 AM 56.3 °F 39.2 °F 53% 29.86 in 10.0 mi SSW 13.8 mph - N/A   Clear
2:35 AM 55.8 °F 39.7 °F 55% 29.85 in 10.0 mi SSW 15.0 mph - N/A   Clear
2:55 AM 55.4 °F 40.1 °F 56% 29.85 in 10.0 mi SSW 11.5 mph - N/A   Clear
3:15 AM 54.7 °F 40.3 °F 58% 29.85 in 10.0 mi SSW 13.8 mph - N/A   Clear
3:35 AM 54.0 °F 40.5 °F 60% 29.85 in 10.0 mi SSW 12.7 mph - N/A   Clear
3:55 AM 53.1 °F 40.5 °F 62% 29.85 in 10.0 mi SSW 10.4 mph - N/A   Clear
4:15 AM 52.7 °F 40.5 °F 63% 29.85 in 10.0 mi SW 10.4 mph - N/A   Clear
4:35 AM 51.6 °F 40.3 °F 65% 29.85 in 10.0 mi SW 4.6 mph - N/A   Clear
4:55 AM 50.2 °F 40.1 °F 68% 29.84 in 10.0 mi SSW 5.8 mph - N/A   Clear
5:15 AM 50.0 °F 39.7 °F 68% 29.84 in 10.0 mi SW 3.5 mph - N/A   Clear
5:35 AM 47.8 °F 39.4 °F 72% 29.84 in 10.0 mi Calm Calm - N/A   Clear
5:55 AM 47.8 °F 38.3 °F 70% 29.83 in 10.0 mi Calm Calm - N/A   Clear
6:15 AM 46.6 °F 38.5 °F 73% 29.82 in 10.0 mi Calm Calm - N/A   Clear
6:35 AM 44.1 °F 37.0 °F 76% 29.81 in 10.0 mi Calm Calm - N/A   Clear
6:55 AM 43.7 °F 36.9 °F 77% 29.81 in 10.0 mi Calm Calm - N/A   Clear
7:15 AM 43.3 °F 36.3 °F 76% 29.81 in 10.0 mi Calm Calm - N/A   Clear
7:35 AM 47.1 °F 36.0 °F 65% 29.81 in 10.0 mi Calm Calm - N/A   Clear
8:15 AM 49.6 °F 38.8 °F 66% 29.80 in 10.0 mi Calm Calm - N/A   Clear
8:35 AM 51.6 °F 39.4 °F 63% 29.80 in 10.0 mi Calm Calm - N/A   Clear
8:55 AM 58.1 °F 37.2 °F 46% 29.79 in 10.0 mi Calm Calm - N/A   Clear
9:15 AM 65.1 °F 28.2 °F 25% 29.78 in 10.0 mi WSW 9.2 mph - N/A   Clear
9:35 AM 69.3 °F 26.6 °F 20% 29.78 in 10.0 mi West 6.9 mph - N/A   Clear
9:55 AM 70.2 °F 26.2 °F 19% 29.78 in 10.0 mi West 8.1 mph - N/A   Clear
10:15 AM 71.1 °F 27.3 °F 20% 29.78 in 10.0 mi West 9.2 mph - N/A   Clear
10:35 AM 72.7 °F 25.5 °F 17% 29.78 in 10.0 mi WNW 6.9 mph - N/A   Clear
10:55 AM 74.7 °F 25.7 °F 16% 29.78 in 10.0 mi WNW 8.1 mph - N/A   Clear
11:15 AM 75.4 °F 23.9 °F 15% 29.78 in 10.0 mi WNW 6.9 mph - N/A   Clear
11:35 AM 78.8 °F 23.7 °F 13% 29.78 in 10.0 mi NW 9.2 mph - N/A   Clear
11:55 AM 81.1 °F 23.9 °F 12% 29.77 in 10.0 mi NNW 20.7 mph 24.2 mph N/A   Clear
12:15 PM 79.9 °F 22.8 °F 12% 29.78 in 10.0 mi North 12.7 mph - N/A   Clear
12:35 PM 80.1 °F 24.1 °F 13% 29.78 in 10.0 mi NNW 12.7 mph - N/A   Clear
12:55 PM 80.2 °F 25.2 °F 13% 29.79 in 10.0 mi North 16.1 mph 20.7 mph N/A   Clear
1:15 PM 79.5 °F 28.0 °F 15% 29.78 in 10.0 mi NNW 15.0 mph 25.3 mph N/A   Clear
1:35 PM 79.5 °F 28.6 °F 16% 29.78 in 10.0 mi North 11.5 mph 19.6 mph N/A   Clear
1:55 PM 79.2 °F 29.3 °F 16% 29.79 in 10.0 mi North 17.3 mph 25.3 mph N/A   Clear
2:15 PM 79.0 °F 29.5 °F 16% 29.79 in 10.0 mi North 18.4 mph 24.2 mph N/A   Clear
2:35 PM 78.3 °F 30.6 °F 18% 29.80 in 10.0 mi North 16.1 mph 24.2 mph N/A   Clear
2:55 PM 77.9 °F 30.4 °F 18% 29.80 in 10.0 mi North 18.4 mph 23.0 mph N/A   Clear
3:15 PM 76.5 °F 30.2 °F 18% 29.81 in 10.0 mi North 13.8 mph 20.7 mph N/A   Clear
3:35 PM 76.6 °F 27.7 °F 16% 29.81 in 10.0 mi North 16.1 mph 24.2 mph N/A   Clear
3:55 PM 77.5 °F 27.5 °F 16% 29.80 in 10.0 mi North 19.6 mph 27.6 mph N/A   Clear
4:15 PM 76.1 °F 27.7 °F 17% 29.80 in 10.0 mi North 16.1 mph 25.3 mph N/A   Clear
4:35 PM 75.4 °F 26.8 °F 17% 29.80 in 10.0 mi North 15.0 mph 23.0 mph N/A   Clear
4:55 PM 76.8 °F 26.8 °F 16% 29.80 in 10.0 mi NNE 18.4 mph - N/A   Clear
5:15 PM 76.6 °F 26.8 °F 16% 29.80 in 10.0 mi North 15.0 mph 21.9 mph N/A   Clear
5:35 PM 74.8 °F 26.1 °F 16% 29.81 in 10.0 mi North 13.8 mph 20.7 mph N/A   Clear
5:55 PM 74.8 °F 27.0 °F 17% 29.81 in 10.0 mi NNE 18.4 mph 21.9 mph N/A   Clear
6:15 PM 73.4 °F 27.3 °F 18% 29.82 in 10.0 mi North 16.1 mph 26.5 mph N/A   Clear
6:35 PM 72.7 °F 28.2 °F 19% 29.83 in 10.0 mi North 19.6 mph 26.5 mph N/A   Clear
6:55 PM 70.5 °F 28.4 °F 21% 29.84 in 10.0 mi North 16.1 mph 29.9 mph N/A   Clear
7:15 PM 69.1 °F 28.9 °F 22% 29.84 in 10.0 mi North 13.8 mph 21.9 mph N/A   Clear
7:35 PM 68.9 °F 28.9 °F 23% 29.84 in 10.0 mi NNE 15.0 mph - N/A   Clear
7:55 PM 68.4 °F 30.0 °F 24% 29.84 in 10.0 mi NNE 18.4 mph 25.3 mph N/A   Clear
8:15 PM 66.9 °F 30.7 °F 26% 29.85 in 10.0 mi NNE 18.4 mph 25.3 mph N/A   Clear
8:35 PM 65.3 °F 31.1 °F 28% 29.86 in 10.0 mi NNE 12.7 mph - N/A   Clear
8:55 PM 64.4 °F 31.3 °F 29% 29.86 in 10.0 mi NNE 9.2 mph - N/A   Clear
9:15 PM 63.5 °F 31.6 °F 30% 29.87 in 10.0 mi North 6.9 mph - N/A   Clear
9:35 PM 63.0 °F 31.1 °F 30% 29.87 in 10.0 mi NNE 10.4 mph - N/A   Clear
9:55 PM 61.7 °F 31.6 °F 32% 29.89 in 10.0 mi NNE 8.1 mph - N/A   Clear
10:15 PM 60.4 °F 31.6 °F 34% 29.87 in 10.0 mi NNE 10.4 mph - N/A   Clear
10:35 PM 60.1 °F 31.6 °F 34% 29.88 in 10.0 mi NNE 9.2 mph - N/A   Clear
10:55 PM 59.2 °F 32.0 °F 36% 29.87 in 10.0 mi NNE 11.5 mph - N/A   Clear
11:15 PM 58.6 °F 32.0 °F 37% 29.87 in 10.0 mi NNE 12.7 mph - N/A   Clear
11:35 PM 58.1 °F 32.4 °F 38% 29.87 in 10.0 mi NNE 11.5 mph - N/A   Scattered Clouds
11:55 PM 58.1 °F 32.4 °F 38% 29.87 in 10.0 mi NNE 11.5 mph 18.4 mph N/A   Overcast